Location: Zapote
(9.9191°N, 84.0597°W)
Time: 13:54:18
(UTC-06:00)

A-11 Canister half - All Passes

Search period start: 28 February 2021 00:00
Search period end: 10 March 2021 00:00
Orbit: 1524 x 1684 km, 47.3° (Epoch: 28 February)

Date Brightness Start Highest point End Pass type
(mag) Time Alt. Az. Time Alt. Az. Time Alt. Az.
28 Feb - 01:36:21 10° SSW 01:46:12 62° SE 01:55:43 10° NE visible
28 Feb - 03:43:01 10° WSW 03:51:20 31° NW 03:59:28 10° NNE visible
28 Feb - 10:17:14 10° NNE 10:20:53 13° NE 10:24:32 10° ENE daylight
28 Feb - 12:17:46 10° NNW 12:26:57 63° NE 12:36:20 10° SE daylight
28 Feb - 14:24:11 10° WNW 14:31:40 27° SW 14:39:22 10° S daylight
01 Mar - 01:14:44 10° SSW 01:24:32 58° SE 01:33:59 10° NE visible
01 Mar - 03:21:04 10° WSW 03:29:37 33° NW 03:37:58 10° NNE visible
01 Mar - 09:56:13 10° NNE 09:59:06 12° NE 10:01:58 10° NE daylight
01 Mar - 11:56:11 10° NNW 12:05:18 59° NE 12:14:35 10° SE daylight
01 Mar - 14:02:18 10° WNW 14:10:00 29° SW 14:17:57 10° S daylight
02 Mar - 00:53:08 10° SSW 01:02:52 54° SE 01:12:16 10° NE visible
02 Mar - 02:59:09 10° WSW 03:07:55 35° NW 03:16:28 10° NNE visible
02 Mar - 09:35:33 10° NNE 09:37:18 11° NNE 09:39:04 10° NE daylight
02 Mar - 11:34:36 10° NNW 11:43:38 55° NE 11:52:50 10° ESE daylight
02 Mar - 13:40:26 10° WNW 13:48:21 32° SW 13:56:31 10° S daylight
03 Mar - 00:31:34 10° SSW 00:41:12 51° SE 00:50:31 10° NE night (unlit)
03 Mar - 02:37:15 10° WSW 02:46:12 38° NW 02:54:56 10° NNE visible
03 Mar - 11:13:02 10° NNW 11:21:59 51° NE 11:31:03 10° ESE daylight
03 Mar - 13:18:35 10° WNW 13:26:42 34° SW 13:35:02 10° S daylight
04 Mar - 00:10:00 10° SSW 00:19:31 47° SE 00:28:45 10° ENE night (unlit)
04 Mar - 02:15:22 10° WSW 02:24:30 40° NW 02:33:24 10° NNE visible
04 Mar - 10:51:29 10° NNW 11:00:19 48° NE 11:09:16 10° ESE daylight
04 Mar - 12:56:46 10° WNW 13:05:03 37° SW 13:13:34 10° SSE daylight
04 Mar - 23:48:26 10° SSW 23:57:51 44° SE 00:06:59 10° ENE night (unlit)
05 Mar - 01:53:29 10° WSW 02:02:48 43° NW 02:11:52 10° NNE visible
05 Mar - 10:29:56 10° NNW 10:38:39 45° NE 10:47:28 10° ESE daylight
05 Mar - 12:34:58 10° WNW 12:43:25 39° SW 12:52:04 10° SSE daylight
05 Mar - 23:26:55 10° SSW 23:36:10 41° SE 23:45:11 10° ENE night (unlit)
06 Mar - 01:31:39 10° WSW 01:41:06 46° NW 01:50:19 10° NNE visible
06 Mar - 10:08:23 10° NNW 10:16:59 42° NE 10:25:38 10° ESE daylight
06 Mar - 12:13:12 10° WNW 12:21:46 42° SW 12:30:33 10° SSE daylight
06 Mar - 23:05:23 10° SSW 23:14:30 38° SE 23:23:22 10° ENE night (unlit)
07 Mar - 01:09:48 10° WSW 01:19:24 50° NW 01:28:45 10° NNE visible
07 Mar - 09:46:50 10° NNW 09:55:18 39° NE 10:03:48 10° ESE daylight
07 Mar - 11:51:26 10° WNW 12:00:08 46° SW 12:09:02 10° SSE daylight
07 Mar - 22:43:53 10° S 22:52:49 36° SE 23:01:33 10° ENE night (unlit)
08 Mar - 00:47:59 10° WSW 00:57:42 53° NW 01:07:10 10° NNE visible
08 Mar - 03:02:16 10° NW 03:04:15 11° NNW 03:06:15 10° NNW visible
08 Mar - 09:25:18 10° NNW 09:33:38 36° NE 09:41:58 10° ESE daylight
08 Mar - 11:29:41 10° WNW 11:38:30 49° SW 11:47:30 10° SSE daylight
08 Mar - 22:22:24 10° S 22:31:08 33° SE 22:39:40 10° ENE night (unlit)
09 Mar - 00:26:11 10° SW 00:36:01 57° NW 00:45:36 10° NNE night (unlit)
09 Mar - 02:39:19 10° NW 02:42:26 12° NW 02:45:33 10° NNW visible
09 Mar - 09:03:47 10° NNW 09:11:56 34° NE 09:20:05 10° ESE daylight
09 Mar - 11:07:57 10° NW 11:16:51 53° SW 11:25:57 10° SSE daylight
09 Mar - 22:00:56 10° S 22:09:27 31° SE 22:17:47 10° ENE night (unlit)
